Weather History for KWWD - October, 2011

Change the Weather History Date:

Sunday, October 16, 2011

  Actual Average Record
Temperature  
Mean Temperature 64 °F -  
Max Temperature 69 °F 63 °F 82 °F (2008)
Min Temperature 60 °F 48 °F 37 °F (2006)
Growing Degree Days 14 (Base 50)    
Moisture  
Dew Point 40 °F    
Average Humidity 40    
Maximum Humidity 49    
Minimum Humidity 33    
Precipitation  
Precipitation 0.00 in - - ()
Sea Level Pressure  
Sea Level Pressure 29.94 in    
Wind  
Wind Speed 13 mph (WSW)    
Max Wind Speed 18 mph    
Max Gust Speed 29 mph    
Visibility 10 miles    
Events      
Averages and records for this station are not official NWS values.
T = Trace of Precipitation, MM = Missing Value Source: NWS Daily Summary

Daily Weather History Graph

Daily Weather History Graph

Search for Another Location

Airport or City:

Trip Planner

Search our weather history database for the weather conditions in past years. The results will help you decide how hot, cold, wet, or windy it might be!

Date:

Astronomy

Oct. 16, 2011 Rise Set
Actual Time 7:09 AM EDT 6:19 PM EDT
Civil Twilight 6:42 AM EDT 6:46 PM EDT
Nautical Twilight 6:11 AM EDT 7:17 PM EDT
Astronomical Twilight 5:41 AM EDT 7:48 PM EDT
Moon 9:05 PM EDT (10/16) 11:22 AM EDT (10/16)
Length of Visible Light 12h 03m
Length of Day
11h 10m
Waning Gibbous, 82% of the Moon is Illuminated
Oct 16
Waning Gibbous
Oct 19
Last Quarter
Oct 26
New
Nov 2
First Quarter
Nov 10
Full

Hourly Weather History & Observations

Time (EDT) Temp. Dew Point Humidity Pressure Visibility Wind Dir Wind Speed Gust Speed Precip Events Conditions
12:15 AM 62.6 °F 41.0 °F 45% 29.89 in 10.0 mi West 11.5 mph 17.3 mph N/A   Clear
12:35 AM 62.6 °F 39.2 °F 42% 29.90 in 10.0 mi West 12.7 mph 18.4 mph N/A   Clear
12:55 AM 62.6 °F 39.2 °F 42% 29.90 in 10.0 mi West 13.8 mph 23.0 mph N/A   Clear
1:15 AM 62.6 °F 37.4 °F 39% 29.91 in 10.0 mi West 13.8 mph 23.0 mph N/A   Clear
1:35 AM 62.6 °F 37.4 °F 39% 29.91 in 10.0 mi West 9.2 mph 25.3 mph N/A   Clear
1:55 AM 62.6 °F 37.4 °F 39% 29.91 in 10.0 mi West 15.0 mph 25.3 mph N/A   Clear
2:15 AM 62.6 °F 39.2 °F 42% 29.92 in 10.0 mi West 11.5 mph 16.1 mph N/A   Clear
2:35 AM 62.6 °F 37.4 °F 39% 29.92 in 10.0 mi West 15.0 mph 23.0 mph N/A   Clear
2:55 AM 62.6 °F 37.4 °F 39% 29.92 in 10.0 mi West 13.8 mph 20.7 mph N/A   Clear
3:15 AM 62.6 °F 37.4 °F 39% 29.92 in 10.0 mi West 16.1 mph 25.3 mph N/A   Clear
3:35 AM 62.6 °F 37.4 °F 39% 29.93 in 10.0 mi West 13.8 mph 23.0 mph N/A   Clear
3:55 AM 62.6 °F 35.6 °F 37% 29.92 in 10.0 mi West 18.4 mph 24.2 mph N/A   Clear
4:15 AM 60.8 °F 37.4 °F 42% 29.93 in 10.0 mi West 12.7 mph 20.7 mph N/A   Clear
4:55 AM 62.6 °F 35.6 °F 37% 29.94 in 10.0 mi West 13.8 mph 24.2 mph N/A   Clear
5:15 AM 60.8 °F 37.4 °F 42% 29.95 in 10.0 mi West 13.8 mph 24.2 mph N/A   Clear
5:35 AM 60.8 °F 37.4 °F 42% 29.96 in 10.0 mi West 13.8 mph 20.7 mph N/A   Clear
5:55 AM 60.8 °F 37.4 °F 42% 29.97 in 10.0 mi West 13.8 mph - N/A   Clear
6:15 AM 60.8 °F 37.4 °F 42% 29.97 in 10.0 mi West 15.0 mph 20.7 mph N/A   Clear
6:35 AM 60.8 °F 37.4 °F 42% 29.99 in 10.0 mi West 12.7 mph 20.7 mph N/A   Clear
6:55 AM 60.8 °F 37.4 °F 42% 29.99 in 10.0 mi West 13.8 mph 19.6 mph N/A   Clear
7:35 AM 60.8 °F 39.2 °F 45% 29.99 in 10.0 mi West 12.7 mph 18.4 mph N/A   Clear
7:55 AM 60.8 °F 39.2 °F 45% 30.00 in 10.0 mi West 13.8 mph 21.9 mph N/A   Clear
8:15 AM 60.8 °F 39.2 °F 45% 30.00 in 10.0 mi West 15.0 mph 23.0 mph N/A   Clear
8:35 AM 62.6 °F 39.2 °F 42% 30.01 in 10.0 mi West 15.0 mph 21.9 mph N/A   Clear
8:55 AM 62.6 °F 39.2 °F 42% 30.01 in 10.0 mi West 15.0 mph 25.3 mph N/A   Clear
9:15 AM 62.6 °F 39.2 °F 42% 30.02 in 10.0 mi West 12.7 mph - N/A   Clear
9:35 AM 62.6 °F 39.2 °F 42% 30.02 in 10.0 mi West 11.5 mph 21.9 mph N/A   Clear
9:55 AM 64.4 °F 39.2 °F 40% 30.02 in 10.0 mi West 15.0 mph 24.2 mph N/A   Clear
10:15 AM 64.4 °F 39.2 °F 40% 30.02 in 10.0 mi West 15.0 mph 20.7 mph N/A   Clear
10:35 AM 64.4 °F 39.2 °F 40% 30.02 in 10.0 mi West 18.4 mph 28.8 mph N/A   Clear
10:55 AM 66.2 °F 39.2 °F 37% 30.01 in 10.0 mi West 11.5 mph 23.0 mph N/A   Clear
11:15 AM 66.2 °F 39.2 °F 37% 30.00 in 10.0 mi West 12.7 mph 19.6 mph N/A   Clear
11:35 AM 66.2 °F 39.2 °F 37% 30.00 in 10.0 mi West 12.7 mph 20.7 mph N/A   Clear
11:55 AM 66.2 °F 41.0 °F 40% 29.99 in 10.0 mi West 13.8 mph 20.7 mph N/A   Clear
12:15 PM 66.2 °F 39.2 °F 37% 29.99 in 10.0 mi WSW 12.7 mph 19.6 mph N/A   Clear
12:35 PM 68.0 °F 39.2 °F 35% 29.99 in 10.0 mi WSW 13.8 mph 20.7 mph N/A   Clear
12:55 PM 69.8 °F 41.0 °F 35% 29.98 in 10.0 mi WSW 12.7 mph 17.3 mph N/A   Clear
1:35 PM 69.8 °F 39.2 °F 33% 29.95 in 10.0 mi WSW 12.7 mph - N/A   Clear
1:55 PM 69.8 °F 41.0 °F 35% 29.95 in 10.0 mi WSW 13.8 mph - N/A   Clear
2:15 PM 69.8 °F 42.8 °F 38% 29.94 in 10.0 mi WSW 12.7 mph - N/A   Clear
2:35 PM 69.8 °F 42.8 °F 38% 29.93 in 10.0 mi SW 11.5 mph 16.1 mph N/A   Clear
2:55 PM 69.8 °F 42.8 °F 38% 29.92 in 10.0 mi SW 15.0 mph - N/A   Clear
3:15 PM 69.8 °F 41.0 °F 35% 29.91 in 10.0 mi WSW 12.7 mph - N/A   Clear
3:35 PM 69.8 °F 41.0 °F 35% 29.90 in 10.0 mi SW 10.4 mph 17.3 mph N/A   Clear
3:55 PM 69.8 °F 42.8 °F 38% 29.90 in 10.0 mi SW 12.7 mph - N/A   Clear
4:15 PM 69.8 °F 42.8 °F 38% 29.89 in 10.0 mi SW 10.4 mph - N/A   Clear
4:35 PM 69.8 °F 42.8 °F 38% 29.89 in 10.0 mi SW 15.0 mph - N/A   Clear
4:55 PM 69.8 °F 42.8 °F 38% 29.87 in 10.0 mi SSW 15.0 mph - N/A   Clear
5:15 PM 68.0 °F 42.8 °F 40% 29.87 in 10.0 mi SSW 15.0 mph 19.6 mph N/A   Clear
5:35 PM 66.2 °F 42.8 °F 43% 29.86 in 10.0 mi SSW 13.8 mph - N/A   Clear
5:55 PM 66.2 °F 41.0 °F 40% 29.85 in 10.0 mi SSW 12.7 mph 20.7 mph N/A   Clear
6:15 PM 64.4 °F 42.8 °F 45% 29.84 in 10.0 mi SSW 11.5 mph - N/A   Clear
6:35 PM 64.4 °F 41.0 °F 42% 29.84 in 10.0 mi SSW 10.4 mph - N/A   Clear
6:55 PM 64.4 °F 44.6 °F 49% 29.84 in 10.0 mi SSW 12.7 mph - N/A   Clear
7:15 PM 64.4 °F 41.0 °F 42% 29.83 in 10.0 mi South 16.1 mph 20.7 mph N/A   Clear
7:35 PM 64.4 °F 42.8 °F 45% 29.82 in 10.0 mi South 16.1 mph 23.0 mph N/A   Clear
7:55 PM 64.4 °F 46.4 °F 52% 29.81 in 10.0 mi South 18.4 mph 23.0 mph N/A   Clear
8:15 PM 64.4 °F 46.4 °F 52% 29.80 in 10.0 mi South 18.4 mph 26.5 mph N/A   Clear
8:35 PM 64.4 °F 46.4 °F 52% 29.81 in 10.0 mi SSW 19.6 mph 25.3 mph N/A   Clear
8:55 PM 64.4 °F 46.4 °F 52% 29.81 in 10.0 mi SSW 19.6 mph 27.6 mph N/A   Clear
9:15 PM 64.4 °F 46.4 °F 52% 29.80 in 10.0 mi SSW 15.0 mph 27.6 mph N/A   Clear
9:35 PM 64.4 °F 46.4 °F 52% 29.80 in 10.0 mi SSW 17.3 mph 26.5 mph N/A   Clear
9:55 PM 64.4 °F 46.4 °F 52% 29.80 in 10.0 mi SSW 20.7 mph 28.8 mph N/A   Clear
10:15 PM 64.4 °F 46.4 °F 52% 29.79 in 10.0 mi SSW 17.3 mph 28.8 mph N/A   Clear
10:35 PM 66.2 °F 46.4 °F 49% 29.78 in 10.0 mi SSW 19.6 mph 29.9 mph N/A   Clear
10:55 PM 66.2 °F 46.4 °F 49% 29.77 in 10.0 mi SSW 20.7 mph 28.8 mph N/A   Clear
11:15 PM 66.2 °F 46.4 °F 49% 29.77 in 10.0 mi SSW 17.3 mph 33.4 mph N/A   Clear
11:35 PM 66.2 °F 48.2 °F 52% 29.76 in 10.0 mi SSW 19.6 mph 27.6 mph N/A   Clear
11:55 PM 66.2 °F 48.2 °F 52% 29.76 in 10.0 mi SSW 15.0 mph 27.6 mph N/A   Clear